Retour au catalogue

SKYSAT C6

ActifScienceSSO
NORAD 42992·PAYLOAD·🇺🇸 United States

Lancé Oct 31, 2017 depuis Vandenberg Space Force Base

Loading…

Prochains Passages (prochaines 24 heures)

TLE

FraisSource: CelesTrak SupGP

Époque: Sep 15, 2026, 02:49 UTC

1 42992C 17068F   26258.11798611  .00004983  00000+0  15153-3 0  2584
2 42992  97.4702  36.6749 0001773 143.6323 358.9995 15.34085682    13

Suivez SKYSAT C6 en temps réel avec AllMySat

Download on the App Store